Weather History for Newcastle, WY

Change the Weather History Date:

Saturday, May 25, 2013

  Actual Average (KCUT) Record (KCUT)
Temperature  
Mean Temperature 64 °F 51 °F  
Max Temperature 82 °F 63 °F 88 °F (1972)
Min Temperature 46 °F 39 °F 24 °F (1984)
Degree Days  
Heating Degree Days 1 14  
Month to date heating degree days 439  
Since 1 July heating degree days 8089  
Cooling Degree Days 0 0  
Month to date cooling degree days 0  
Year to date cooling degree days 0  
Growing Degree Days 14 (Base 50)    
Moisture  
Dew Point 46 °F    
Average Humidity 52    
Maximum Humidity 87    
Minimum Humidity 16    
Precipitation  
Precipitation 0.00 in 0.10 in 2.41 in (1960)
Month to date precipitation 2.46  
Year to date precipitation 6.45  
Sea Level Pressure  
Sea Level Pressure 29.92 in    
Wind  
Wind Speed 7 mph (ESE)    
Max Wind Speed 22 mph    
Max Gust Speed 26 mph    
Visibility 10 miles    
Events      
T = Trace of Precipitation, MM = Missing Value Source: NWS Daily Summary

Daily Weather History Graph

Daily Weather History Graph

Search for Another Location

Airport:

Trip Planner

Search our weather history database for the weather conditions in past years. The results will help you decide how hot, cold, wet, or windy it might be!

Date:

Astronomy

May. 25, 2013 Rise Set
Actual Time 5:22 AM MDT 8:26 PM MDT
Civil Twilight 4:47 AM MDT 9:01 PM MDT
Nautical Twilight 4:03 AM MDT 9:46 PM MDT
Astronomical Twilight 3:10 AM MDT 10:39 PM MDT
Moon 9:17 PM MDT (5/25) 5:52 AM MDT (5/25)
Length of Visible Light 16h 14m
Length of Day
15h 04m
Waxing Gibbous, 99% of the Moon is Illuminated
May 25
Waxing Gibbous
May 31
Last Quarter
Jun 8
New
Jun 16
First Quarter
Jun 23
Full

Hourly Weather History & Observations

Time (MDT) Temp. Dew Point Humidity Pressure Visibility Wind Dir Wind Speed Gust Speed Precip Events Conditions
12:15 AM 60.8 °F 39.2 °F 45% 29.96 in 10.0 mi Calm Calm - N/A   Clear
12:35 AM 59.0 °F 41.0 °F 51% 29.96 in 10.0 mi SE 5.8 mph - N/A   Clear
12:55 AM 57.2 °F 42.8 °F 59% 29.96 in 10.0 mi Calm Calm - N/A   Clear
1:15 AM 60.8 °F 44.6 °F 55% 29.95 in 10.0 mi East 8.1 mph - N/A   Clear
1:35 AM 51.8 °F 41.0 °F 67% 29.97 in 10.0 mi WSW 4.6 mph - N/A   Clear
1:55 AM 51.8 °F 41.0 °F 67% 29.97 in 10.0 mi WNW 6.9 mph - N/A   Clear
2:15 AM 51.8 °F 41.0 °F 67% 29.97 in 10.0 mi NW 6.9 mph - N/A   Clear
2:35 AM 51.8 °F 39.2 °F 62% 29.97 in 10.0 mi Calm Calm - N/A   Clear
2:55 AM 46.4 °F 39.2 °F 76% 29.97 in 10.0 mi Calm Calm - N/A   Clear
3:15 AM 46.4 °F 39.2 °F 76% 29.97 in 10.0 mi Calm Calm - N/A   Clear
3:35 AM 51.8 °F 41.0 °F 67% 29.97 in 10.0 mi Calm Calm - N/A   Clear
3:55 AM 46.4 °F 41.0 °F 81% 29.98 in 10.0 mi Calm Calm - N/A   Clear
4:15 AM 51.8 °F 42.8 °F 71% 29.98 in 10.0 mi Calm Calm - N/A   Clear
4:35 AM 53.6 °F 44.6 °F 72% 29.98 in 10.0 mi Calm Calm - N/A   Clear
4:55 AM 51.8 °F 44.6 °F 76% 29.98 in 10.0 mi ESE 5.8 mph - N/A   Clear
5:15 AM 50.0 °F 44.6 °F 82% 29.98 in 10.0 mi SE 6.9 mph - N/A   Clear
5:35 AM 50.0 °F 44.6 °F 82% 29.98 in 10.0 mi Calm Calm - N/A   Clear
5:55 AM 51.8 °F 46.4 °F 82% 29.99 in 10.0 mi Calm Calm - N/A   Clear
6:15 AM 50.0 °F 46.4 °F 87% 30.00 in 10.0 mi Calm Calm - N/A   Clear
6:35 AM 53.6 °F 48.2 °F 82% 30.00 in 10.0 mi Calm Calm - N/A   Scattered Clouds
6:55 AM 55.4 °F 50.0 °F 82% 30.00 in 10.0 mi SSE 5.8 mph - N/A   Clear
7:15 AM 55.4 °F 50.0 °F 82% 30.00 in 10.0 mi ESE 8.1 mph - N/A   Scattered Clouds
7:35 AM 59.0 °F 51.8 °F 77% 30.00 in 10.0 mi SE 10.4 mph - N/A   Overcast
7:55 AM 60.8 °F 51.8 °F 72% 30.00 in 10.0 mi ESE 9.2 mph - N/A   Overcast
8:15 AM 60.8 °F 51.8 °F 72% 30.00 in 10.0 mi SE 9.2 mph - N/A   Mostly Cloudy
8:35 AM 62.6 °F 51.8 °F 68% 30.00 in 10.0 mi SE 16.1 mph 20.7 mph N/A   Mostly Cloudy
8:55 AM 64.4 °F 53.6 °F 68% 30.00 in 10.0 mi SE 18.4 mph 23.0 mph N/A   Mostly Cloudy
9:15 AM 64.4 °F 53.6 °F 68% 29.99 in 10.0 mi SE 17.3 mph - N/A   Scattered Clouds
9:35 AM 64.4 °F 53.6 °F 68% 30.00 in 10.0 mi North - - N/A   Mostly Cloudy
9:55 AM 64.4 °F 53.6 °F 68% 29.99 in 10.0 mi North - - N/A   Mostly Cloudy
10:15 AM 66.2 °F 53.6 °F 64% 29.99 in 10.0 mi North - - N/A   Mostly Cloudy
10:35 AM 66.2 °F 53.6 °F 64% 29.98 in 10.0 mi SSE 18.4 mph 25.3 mph N/A   Mostly Cloudy
10:55 AM 68.0 °F 53.6 °F 60% 29.96 in 10.0 mi North - - N/A   Scattered Clouds
11:15 AM 69.8 °F 53.6 °F 56% 29.96 in 10.0 mi ESE 17.3 mph 25.3 mph N/A   Scattered Clouds
11:35 AM 69.8 °F 53.6 °F 56% 29.95 in 10.0 mi SE 20.7 mph 26.5 mph N/A   Scattered Clouds
11:55 AM 71.6 °F 51.8 °F 50% 29.95 in 10.0 mi SSE 21.9 mph - N/A   Clear
12:15 PM 73.4 °F 51.8 °F 47% 29.94 in 10.0 mi SSE 17.3 mph - N/A   Clear
12:35 PM 73.4 °F 51.8 °F 47% 29.93 in 10.0 mi North - - N/A   Clear
12:55 PM 75.2 °F 51.8 °F 44% 29.92 in 10.0 mi North - - N/A   Clear
1:15 PM 75.2 °F 51.8 °F 44% 29.92 in 10.0 mi SE 18.4 mph 25.3 mph N/A   Clear
1:35 PM 77.0 °F 51.8 °F 41% 29.91 in 10.0 mi North - - N/A   Clear
1:55 PM 78.8 °F 51.8 °F 39% 29.90 in 10.0 mi North - - N/A   Clear
2:15 PM 80.6 °F 48.2 °F 32% 29.89 in 10.0 mi North - - N/A   Clear
2:35 PM 80.6 °F 46.4 °F 30% 29.89 in 10.0 mi SSE 18.4 mph - N/A   Clear
2:55 PM 80.6 °F 46.4 °F 30% 29.88 in 10.0 mi North - - N/A   Clear
3:15 PM 80.6 °F 44.6 °F 28% 29.88 in 10.0 mi South 13.8 mph 24.2 mph N/A   Clear
3:35 PM 82.4 °F 46.4 °F 28% 29.87 in 10.0 mi North - - N/A   Clear
3:55 PM 82.4 °F 42.8 °F 25% 29.86 in 10.0 mi North - - N/A   Clear
4:15 PM 78.8 °F 44.6 °F 30% 29.86 in 10.0 mi SE 16.1 mph - N/A   Clear
4:35 PM 77.0 °F 44.6 °F 32% 29.87 in 10.0 mi North - - N/A   Clear
4:55 PM 75.2 °F 30.2 °F 19% 29.86 in 10.0 mi Calm Calm - N/A   Clear
5:15 PM 80.6 °F 30.2 °F 16% 29.86 in 10.0 mi East 6.9 mph - N/A   Clear
5:35 PM 77.0 °F 30.2 °F 18% 29.84 in 10.0 mi Calm Calm - N/A   Clear
5:55 PM 80.6 °F 32.0 °F 17% 29.83 in 10.0 mi SE 5.8 mph - N/A   Clear
6:15 PM 78.8 °F 33.8 °F 20% 29.83 in 10.0 mi SE 5.8 mph - N/A   Clear
6:35 PM 78.8 °F 41.0 °F 26% 29.83 in 10.0 mi ESE 6.9 mph - N/A   Clear
6:55 PM 78.8 °F 42.8 °F 28% 29.82 in 10.0 mi North - - N/A   Clear
7:15 PM 78.8 °F 42.8 °F 28% 29.82 in 10.0 mi ESE 11.5 mph - N/A   Clear
7:35 PM 75.2 °F 44.6 °F 34% 29.82 in 10.0 mi ESE 9.2 mph - N/A   Clear
7:55 PM 73.4 °F 46.4 °F 38% 29.82 in 10.0 mi North - - N/A   Clear
8:15 PM 73.4 °F 48.2 °F 41% 29.83 in 10.0 mi ESE 20.7 mph - N/A   Clear
8:35 PM 71.6 °F 50.0 °F 46% 29.83 in 10.0 mi East 17.3 mph - N/A   Clear
8:55 PM 71.6 °F 50.0 °F 46% 29.83 in 10.0 mi East 16.1 mph - N/A   Clear
9:15 PM 71.6 °F 50.0 °F 46% 29.84 in 10.0 mi East 15.0 mph 21.9 mph N/A   Clear
9:35 PM 71.6 °F 46.4 °F 41% 29.84 in 10.0 mi East 19.6 mph 23.0 mph N/A   Clear
9:55 PM 71.6 °F 46.4 °F 41% 29.84 in 10.0 mi East 16.1 mph - N/A   Clear
10:15 PM 71.6 °F 46.4 °F 41% 29.84 in 10.0 mi East 16.1 mph - N/A   Clear
10:35 PM 71.6 °F 46.4 °F 41% 29.84 in 10.0 mi East 17.3 mph 26.5 mph N/A   Clear
10:55 PM 69.8 °F 48.2 °F 46% 29.84 in 10.0 mi ESE 16.1 mph - N/A   Clear
11:15 PM 69.8 °F 46.4 °F 43% 29.84 in 10.0 mi North - - N/A   Clear
11:35 PM 69.8 °F 46.4 °F 43% 29.84 in 10.0 mi ESE 15.0 mph 21.9 mph N/A   Clear
11:55 PM 68.0 °F 46.4 °F 46% 29.84 in 10.0 mi ESE 15.0 mph - N/A   Clear